Regional Weather Roundup
Issued by NWS State College, PA

Home | Current Version | Previous Version | Graphics & Text | Print | Product List | Glossary On
Versions: 1 2 3 4 5 6 7 8 9 10 11 12 13 14 15 16 17 18 19 20 21 22 23 24 25 26 27 28 29 30 31 32 33 34 35 36 37 38 39 40 41 42 43 44 45 46 47 48 49 50
915
ASUS41 KCTP 051210
RWRCTP

REGIONAL WEATHER ROUNDUP
NATIONAL WEATHER SERVICE STATE COLLEGE PA
700 AM EST MON DEC 05 2016

Note: "fair" indicates few or no clouds below 12,000 feet with no
significant weather and/or obstructions to visibility.

* = STATION THAT DOES NOT REPORT PRECIPITATION /E.G. RAIN...SNOW...ETC/
    THUNDER OR FOG.

PAZ002>004-007>009-013>016-020>023-029>032-051300-
WESTERN PENNSYLVANIA

CITY           SKY/WX    TMP DP  RH WIND       PRES   REMARKS
ERIE           CLOUDY    40  32  73 W16G29    29.94R
MEADVILLE      CLOUDY    36  31  82 W13       29.94R
FRANKLIN*        N/A     36  28  75 W15       29.95R
NEW CASTLE     CLOUDY    37  32  82 W12G20    30.00R
BEAVER COUNTY  CLOUDY    36  32  87 W13G20    29.99
BUTLER*        CLOUDY    37  34  87 W20G25    30.01R
PITTSBURGH INT CLOUDY    41  36  82 W13G23    29.99R
PITTSBURGH     CLOUDY    41  34  76 W13G22    29.99R
INDIANA*       CLOUDY    39  39 100 W8G15     29.99R FOG
LATROBE        CLOUDY    41  41 100 W14       29.99R
WASHINGTON CO* CLOUDY    41  36  81 W10       30.01R
$$

PAZ004>006-010>012-017>019-024>028-033>037-041-042-045-046-049>053-051300-
CENTRAL PENNSYLVANIA

CITY           SKY/WX    TMP DP  RH WIND       PRES   REMARKS
BRADFORD       LGT SNOW  34  33  96 SW8       29.86R FOG
DUBOIS         CLOUDY    36  33  89 W15G24    29.91R FOG
CLEARFIELD     CLOUDY    37  36  96 SW6G16    29.92R
JOHNSTOWN      RAIN      38  37  97 W16       29.92R FOG
ALTOONA        LGT RAIN  40  38  93 SW10      29.92R
STATE COLLEGE  RAIN      34  32  93 CALM      29.92R
WILLIAMSPORT   CLOUDY    37  37 100 CALM      29.94R
SELINSGROVE    CLOUDY    36  36 100 SW5       29.98R
FT INDIANTOWN  CLOUDY    32  32 100 N1        29.98R FOG
CAPITAL CITY   CLOUDY    40  37  89 W3        29.98R
HARRISBURG     DRIZZLE   39  39 100 CALM      29.98R
YORK           CLOUDY    39  38  96 SW6       29.97R
$$

PAZ038>040-043-044-047-048-054-055-060>062-067>071-051300-
EASTERN PENNSYLVANIA

CITY           SKY/WX    TMP DP  RH WIND       PRES   REMARKS
SCRANTON       CLOUDY    35  32  88 W6        29.92S
MOUNT POCONO   CLOUDY    30  29  96 SW9       29.90S FOG
ALLENTOWN      MIX PCPN  34  32  92 CALM      30.00R FOG
QUAKERTOWN*    CLOUDY    34  34 100 CALM      30.00R
READING        CLOUDY    36  34  92 CALM      29.99R
LANCASTER      LGT RAIN  40  39  97 SW3       29.98S
COATESVILLE    CLOUDY    37  37 100 VRB3      29.99S FOG
POTTSTOWN      LGT RAIN  37  36  96 S3        30.01S FOG
BLUE BELL      CLOUDY    37  37 100 SW3       30.00R
DOYLESTOWN     LGT RAIN  39  38  96 VRB6      29.99S
WILLOW GROVE   NOT AVBL
NORTH PHILA    CLOUDY    41  39  93 SW6       30.03R FOG
PHILADELPHIA   CLOUDY    41  39  93 SW12      30.02R
$$




USA.gov is the U.S. government's official web portal to all federal, state and local government web resources and services.